Torna al catalogo

FENGYUN 1C DEB

AttivoPO
NORAD 30128·DEBRIS·🇨🇳 China

Lanciato May 10, 1999 da Taiyuan Satellite Launch Center

Loading…

Prossimi Passaggi (prossime 24 ore)

TLE

AggiornatoSource: Space-Track

Epoca: Sep 14, 2026, 08:28 UTC

1 30128U 99025SH  26257.35295741  .00009513  00000-0  21978-2 0  9994
2 30128  96.9874 214.1271 0098390 335.3188 177.4544 14.52400576 12916

Traccia FENGYUN 1C DEB in tempo reale con AllMySat

Download on the App Store